Temperature
8 8 8 8 9 9 8 9 9 11 11 12 13 13 13 12 11 10 9 9 9 9 9 10 10 9 9 9 8 8 7 7 6 6 5 5 4 4 4 4 3 4 4 4
7 8 8 8 8 9 9 9 10 10 11 12 12 11 11 11 10 10 9 9 10 10 10 10 10 10 9 9 8 7 7 6 6 5 5 4 4 3 3 3 3 3 3 3
8 7 7 8 9 9 9 9 9 10 11 12 11 11 10 10 10 10 9 9 10 10 10 10 10 10 9 9 8 7 6 6 5 4 4 3 3 2 2 2 2 2 2 2
8 7 7 10 9 9 9 9 9 9 10 10 10 9 9 9 9 9 9 9 9 10 10 10 10 10 9 8 8 7 6 5 5 4 3 3 2 2 2 2 1 1 1 1
7 8 8 9 8 8 8 9 9 9 9 9 8 7 9 8 8 8 9 9 9 10 10 10 10 10 9 8 7 7 6 5 4 4 3 2 2 2 1 1 1 1 1 1
7 7 7 9 9 7 8 9 9 8 9 8 7 9 10 8 8 8 9 9 9 10 10 10 10 9 9 8 7 7 6 5 4 3 3 2 2 1 1 1 1 1 1 1
6 7 8 9 7 7 8 9 8 8 8 7 8 8 8 7 8 8 8 9 9 9 9 9 9 9 8 8 7 6 5 4 3 3 2 2 1 1 1 1 0 0 0 0
7 6 7 7 7 8 8 7 7 7 7 7 7 7 7 7 7 8 8 8 8 8 8 8 8 8 8 7 6 5 4 3 3 2 2 1 1 1 0 0 0 0 -0 0
7 8 7 6 6 6 6 6 6 6 6 6 7 7 7 7 7 7 7 7 7 7 7 7 7 7 6 6 5 4 4 3 2 2 1 1 1 1 0 0 0 -0 -0 0
5 6 6 5 5 5 5 5 6 6 6 6 6 6 7 7 7 7 7 7 7 7 7 6 6 6 5 5 4 4 3 3 2 1 1 1 1 0 0 1 0 0 0 0
5 6 5 5 4 4 5 5 5 5 5 6 6 6 6 6 6 6 6 6 6 6 6 6 5 5 5 4 4 3 3 2 2 1 1 1 1 1 1 1 0 0 0 0
4 4 4 4 3 3 4 4 4 5 5 5 5 5 6 6 6 6 6 6 6 5 5 5 5 5 4 4 3 3 2 2 2 1 1 0 0 0 0 0 0 -0 -0 -0
2 2 2 2 2 3 3 3 4 4 4 4 5 5 5 5 5 5 5 5 5 5 5 5 4 4 4 3 3 3 2 2 2 1 1 0 0 0 0 0 -0 -0 -0 -0
1 1 1 2 2 2 2 2 3 3 3 3 4 4 4 4 4 4 4 4 4 4 4 4 4 4 3 3 3 2 2 2 1 1 1 0 0 0 -0 -0 -0 -0 0 -0
1 0 0 1 1 1 2 2 2 2 2 3 3 3 3 4 4 4 4 3 3 3 3 3 3 3 3 3 2 2 2 2 1 1 1 0 0 0 -0 -0 -0 -0 -0 -0
-0 0 0 0 0 1 1 1 1 1 2 2 2 2 2 3 3 3 3 3 3 3 3 3 3 3 2 2 2 2 2 1 1 1 1 0 0 0 -0 -0 -1 -1 -0 -0
-1 -1 -0 -0 -0 -0 0 0 0 1 1 1 1 1 2 2 2 2 2 2 2 2 2 2 2 2 2 2 2 1 1 1 1 1 0 0 0 -0 -0 -0 -0 -0 -0 -1
-1 -1 -1 -1 -1 -1 -0 -0 -0 0 0 0 0 1 1 1 1 1 1 1 1 1 1 1 1 1 1 1 1 1 1 1 0 0 0 0 -0 -0 -0 -1 -1 -1 -1 -1
-1 -1 -1 -1 -1 -1 -1 -1 -1 -1 -0 -0 -0 -0 -0 -0 0 0 0 0 0 0 0 0 0 0 0 0 0 0 0 0 0 0 -0 -0 -0 -1 -1 -1 -1 -1 -1 -1
-1 -1 -1 -2 -2 -1 -1 -1 -1 -1 -1 -1 -1 -1 -1 -1 -1 -1 -0 -1 -1 -1 -1 -1 -0 -0 -0 -0 -0 -0 -0 -0 -0 -0 -0 -1 -1 -1 -1 -1 -1 -2 -2 -2
-1 -1 -2 -2 -2 -2 -2 -2 -2 -1 -1 -1 -1 -1 -1 -1 -1 -1 -1 -1 -1 -1 -1 -1 -1 -1 -1 -1 -1 -1 -1 -1 -1 -1 -1 -1 -1 -2 -2 -2 -2 -2 -2 -2
-1 -2 -2 -2 -2 -2 -2 -2 -2 -2 -2 -2 -2 -2 -2 -1 -1 -1 -2 -2 -2 -2 -2 -2 -2 -2 -2 -1 -2 -2 -2 -2 -2 -2 -2 -2 -2 -2 -2 -3 -3 -3 -3 -3
-1 -2 -2 -2 -2 -2 -2 -2 -2 -2 -2 -2 -2 -2 -2 -2 -2 -2 -2 -2 -2 -2 -2 -2 -2 -2 -2 -2 -2 -2 -2 -3 -3 -3 -3 -3 -3 -3 -3 -3 -3 -4 -4 -4
-1 -1 -2 -2 -2 -2 -2 -2 -2 -2 -2 -2 -2 -2 -2 -2 -2 -2 -2 -2 -2 -2 -2 -3 -3 -3 -3 -3 -3 -3 -3 -3 -3 -3 -3 -4 -4 -4 -4 -4 -4 -4 -4 -4
-1 -1 -2 -2 -2 -2 -2 -2 -2 -2 -2 -2 -2 -2 -2 -2 -2 -2 -2 -2 -2 -3 -3 -3 -3 -3 -3 -3 -3 -3 -3 -4 -4 -4 -4 -4 -4 -4 -4 -5 -5 -5 -5 -5
-1 -1 -2 -2 -2 -2 -2 -2 -2 -2 -2 -2 -2 -2 -2 -2 -2 -2 -3 -3 -3 -3 -3 -3 -3 -3 -3 -4 -4 -4 -4 -4 -4 -4 -4 -4 -5 -5 -5 -5 -5 -5 -5 -5
-1 -2 -2 -2 -2 -2 -2 -2 -2 -2 -2 -2 -2 -2 -2 -3 -3 -3 -3 -3 -3 -3 -3 -3 -4 -4 -4 -4 -4 -4 -4 -4 -4 -5 -5 -5 -5 -5 -5 -5 -5 -6 -6 -6
Wind_Speed
2 1 4 6 10 13 14 14 11 12 15 16 14 14 14 12 10 8 8 9 11 12 12 12 12 11 10 10 10 9 9 8 7 6 6 5 5 4 4 4 3 4 4 4
2 3 4 6 10 13 15 15 17 18 19 16 15 14 14 14 13 12 11 12 13 13 14 14 14 13 12 11 11 10 10 9 8 8 7 6 6 5 5 4 4 4 4 4
3 2 3 8 11 14 11 11 12 16 15 12 13 13 14 14 13 13 13 13 13 14 15 15 15 14 14 13 12 11 10 9 9 9 8 7 7 6 6 5 5 4 4 4
3 4 7 3 1 6 11 11 13 14 14 14 14 14 14 13 13 14 13 12 12 12 13 13 13 13 12 12 13 12 11 11 10 9 9 8 8 7 6 5 5 5 4 4
3 5 7 4 3 4 6 5 6 10 12 11 10 9 8 6 8 11 11 10 10 10 10 10 12 13 13 13 13 12 12 12 11 10 10 9 9 8 6 6 5 4 4 4
4 5 5 1 2 3 3 3 1 4 6 7 5 5 4 6 7 6 5 5 5 5 7 9 11 12 13 13 13 13 13 12 11 11 10 10 9 8 6 6 5 5 4 4
8 7 6 2 2 5 4 0 2 3 5 5 4 5 7 8 6 4 3 2 0 3 5 6 9 12 12 12 13 12 11 10 11 10 10 9 9 8 7 6 6 6 6 6
6 7 5 2 4 4 3 3 4 5 5 6 6 7 6 5 4 3 3 2 2 2 3 5 8 10 10 10 9 10 10 10 10 10 9 8 9 8 8 8 8 7 7 7
4 3 2 0 2 4 5 5 5 6 6 6 6 5 4 3 3 2 2 1 1 2 3 4 6 8 8 8 9 10 10 10 10 10 9 9 9 9 8 8 7 7 7 7
5 5 5 5 4 5 6 7 8 8 7 6 5 5 4 3 2 1 1 0 1 2 3 4 5 6 6 7 9 10 11 10 10 10 9 9 8 8 9 9 8 8 8 7
6 6 7 3 5 8 9 8 7 7 6 5 5 4 4 3 2 2 1 1 2 3 3 4 5 6 6 8 9 10 10 9 9 9 9 9 9 9 10 10 10 9 8 7
4 5 6 8 10 11 10 8 7 6 6 5 4 4 3 3 2 2 2 2 2 3 4 4 5 6 7 8 10 10 9 9 8 8 8 8 8 8 12 11 13 15 12 9
7 9 11 12 11 9 8 8 7 5 5 5 4 3 3 2 2 2 2 2 3 4 4 4 5 6 7 8 10 11 10 9 8 8 9 9 9 9 8 10 14 16 17 17
8 8 8 8 8 9 9 8 6 4 4 4 4 3 3 2 2 2 2 3 4 4 4 4 5 5 6 8 10 11 10 10 9 9 9 9 9 9 8 8 8 8 13 18
7 8 9 11 10 9 7 6 5 5 4 4 3 3 3 3 3 3 3 3 3 3 3 3 4 4 4 6 9 10 10 8 8 8 8 8 8 8 8 9 8 7 6 9
12 11 9 9 9 8 7 6 6 6 5 4 4 4 3 3 3 3 3 3 2 3 3 3 4 4 3 5 7 8 8 10 9 8 8 8 8 8 9 9 9 9 9 8
8 8 8 9 9 9 7 6 6 6 5 4 4 4 3 2 2 2 3 3 3 2 3 4 5 5 4 4 6 6 6 7 11 8 8 8 8 9 9 9 9 9 9 9
7 8 8 9 9 8 6 5 4 3 3 3 3 2 2 2 3 3 4 4 2 2 3 4 5 5 4 4 4 5 5 5 6 8 7 8 8 8 9 9 10 10 8 9
6 7 7 6 6 5 4 3 3 3 3 2 2 1 2 2 3 3 3 3 3 3 5 6 8 6 5 4 4 4 4 5 6 6 6 8 9 8 8 9 9 9 8 8
6 5 5 5 5 4 3 3 3 2 2 2 1 1 2 2 3 3 2 2 2 3 6 7 7 5 5 4 4 3 4 5 5 5 6 6 7 7 7 8 8 8 8 8
6 5 5 5 5 4 4 3 3 3 3 2 2 2 2 3 3 3 2 2 2 4 6 7 5 5 5 5 4 3 3 4 4 5 5 6 6 7 7 7 8 8 8 8
5 5 5 5 5 5 4 3 3 4 3 3 3 3 3 3 3 3 3 2 4 6 5 4 4 6 7 6 3 3 3 4 4 4 4 5 5 6 6 7 7 7 7 8
6 6 6 6 6 5 5 5 4 4 4 4 4 4 4 4 3 3 3 2 4 6 5 4 7 9 9 5 3 3 3 4 4 4 4 5 5 6 6 7 6 7 7 7
7 7 6 6 5 6 7 6 5 5 5 5 5 5 5 4 3 3 4 5 6 7 5 6 8 8 7 4 3 3 4 4 4 4 4 5 5 5 6 6 6 6 6 7
7 7 7 6 6 6 7 6 6 6 6 5 6 6 5 4 4 4 3 4 6 6 4 5 7 7 4 3 4 4 4 4 4 4 4 5 5 5 5 5 6 6 6 6
8 7 7 7 7 6 5 5 5 5 5 5 5 4 4 4 4 4 4 4 5 5 4 4 4 4 3 4 4 4 4 4 5 5 5 5 5 5 5 5 6 6 6 6
8 7 6 6 6 6 6 6 6 6 6 6 5 4 4 4 4 4 4 4 4 4 4 4 3 3 4 4 4 4 4 4 4 5 5 5 5 5 5 6 5 5 5 5
Wind_Direction
240 157 177 206 210 209 216 229 241 252 253 258 264 274 282 287 284 265 239 218 209 206 202 196 192 190 187 183 178 175 177 179 179 174 169 163 159 152 144 134 123 116 114 109
227 222 222 239 233 225 230 238 245 257 264 269 276 278 276 275 271 261 248 232 219 213 208 203 199 194 189 186 181 180 182 181 174 173 171 169 165 160 150 141 132 126 121 116
219 211 232 252 237 225 225 226 235 249 262 280 281 277 275 277 272 263 255 242 227 218 214 210 203 195 192 187 179 182 184 180 177 176 175 173 170 167 159 150 144 140 132 129
196 187 232 247 147 228 233 246 242 255 271 281 285 290 286 278 272 268 259 247 236 225 219 213 202 194 187 179 179 182 184 182 180 179 178 174 174 172 164 158 159 154 147 145
213 234 260 267 218 199 215 258 249 252 271 286 300 294 280 286 279 272 270 261 248 231 219 205 193 185 178 178 181 184 187 185 183 181 179 178 179 177 170 168 167 165 161 159
218 235 244 233 128 172 200 245 249 253 286 307 312 296 330 355 331 311 298 279 254 221 199 190 182 175 177 181 184 190 189 186 182 182 183 183 182 178 174 174 174 174 178 187
230 241 261 290 145 165 220 314 8 299 299 303 283 289 317 325 330 338 346 353 349 175 177 177 169 172 181 185 192 189 180 178 179 182 185 182 177 176 174 178 180 187 193 202
217 228 246 93 149 200 304 338 315 305 305 297 284 289 300 314 329 344 3 32 70 132 142 153 166 176 184 192 185 173 172 175 179 182 182 178 176 177 181 185 190 197 204 211
236 249 355 348 250 307 319 304 308 305 308 302 293 294 302 309 321 339 359 36 75 131 141 157 177 187 192 187 171 171 175 180 182 183 184 181 183 184 187 194 201 204 210 217
269 276 296 296 301 320 316 300 303 301 300 297 292 297 298 300 305 309 317 260 174 174 181 187 192 199 198 177 173 177 182 184 184 185 187 188 192 193 196 200 205 209 214 219
271 294 311 310 340 332 322 314 315 314 306 298 293 298 299 289 285 283 282 257 224 222 228 219 202 202 192 179 177 184 189 190 190 193 193 196 201 205 206 211 211 210 214 216
283 325 312 305 319 321 316 316 317 312 308 314 306 295 298 285 286 286 279 261 246 241 240 233 217 211 199 189 188 190 195 196 196 197 198 201 205 214 223 224 223 225 226 223
294 302 296 293 301 309 307 309 311 306 297 300 310 311 298 287 299 305 297 281 270 265 258 246 230 223 210 198 197 201 203 200 200 201 202 204 206 211 217 222 228 232 231 230
301 302 293 299 304 310 306 304 301 302 308 307 310 318 311 298 301 303 304 302 293 282 269 256 243 237 221 206 205 210 212 208 205 206 206 207 209 213 216 215 216 224 228 230
309 306 290 293 295 297 298 294 289 290 299 306 312 313 312 302 298 307 317 317 301 287 286 276 262 259 239 215 213 215 215 214 211 211 208 209 210 212 215 218 223 224 218 223
308 304 297 293 296 301 302 294 286 286 289 291 296 303 307 305 305 318 333 332 311 303 310 301 288 288 266 230 221 221 222 219 211 211 209 210 210 213 216 218 221 223 224 220
305 309 315 310 305 303 302 296 289 286 284 282 292 303 308 312 314 334 344 342 327 320 328 320 312 310 281 244 229 227 226 222 214 215 216 214 213 217 219 220 223 226 229 220
289 293 297 299 299 299 300 300 300 299 295 297 304 309 317 320 324 331 335 334 331 341 352 337 328 321 303 271 245 235 230 227 218 220 220 218 219 220 221 224 226 230 233 226
298 300 306 310 310 300 297 301 307 310 314 313 302 311 326 328 328 327 331 340 341 335 345 339 333 326 314 300 272 241 234 231 228 227 226 227 227 224 224 226 229 231 231 224
298 302 308 316 324 320 315 318 320 320 328 327 315 317 322 327 327 324 322 326 335 323 322 326 328 324 316 307 289 257 245 240 238 235 230 229 230 231 228 229 231 233 233 231
291 294 299 302 307 309 308 307 305 306 315 315 297 293 299 309 314 308 298 295 323 326 323 325 325 320 314 311 297 277 261 253 248 244 241 238 236 237 236 234 234 234 235 235
280 280 282 285 288 291 293 291 284 284 288 286 278 275 279 287 296 291 271 280 307 318 320 317 316 316 320 314 296 285 277 267 259 254 251 247 245 245 244 242 241 240 239 239
271 269 270 271 277 283 283 273 264 264 265 266 266 265 266 271 277 277 282 292 306 313 315 308 314 318 321 313 298 288 280 273 267 262 258 255 252 252 253 251 249 247 245 243
268 266 264 267 271 272 273 272 264 260 260 263 258 255 257 266 266 252 266 291 303 307 303 307 317 321 322 312 303 296 289 282 278 274 268 263 260 258 258 257 256 254 251 249
264 263 260 258 260 261 264 268 268 262 258 257 257 250 244 243 252 267 272 280 294 302 299 304 314 320 318 305 302 298 293 288 287 286 277 274 271 268 265 263 260 260 257 254
261 259 257 252 253 259 258 255 258 260 257 260 261 250 240 238 244 253 260 270 279 290 294 296 302 307 304 301 299 298 296 294 293 288 284 282 278 275 271 268 266 263 263 261
262 260 260 261 255 246 244 244 249 254 249 249 258 252 241 239 240 246 253 262 270 277 282 287 292 294 295 296 296 295 294 293 290 288 287 283 280 277 275 273 272 270 268 264
Height
1492 1493 1493 1494 1494 1495 1497 1494 1494 1486 1485 1482 1482 1482 1483 1483 1484 1483 1483 1483 1484 1485 1487 1490 1493 1495 1498 1499 1501 1502 1502 1503 1503 1503 1503 1502 1502 1502 1502 1502 1502 1501 1501 1500
1495 1494 1494 1494 1491 1491 1492 1490 1488 1486 1483 1480 1481 1482 1481 1480 1480 1479 1479 1479 1480 1482 1484 1486 1488 1491 1493 1495 1497 1498 1498 1499 1499 1499 1499 1499 1499 1499 1499 1499 1499 1499 1499 1499
1490 1493 1493 1489 1483 1485 1485 1484 1484 1482 1478 1477 1478 1478 1477 1476 1476 1475 1474 1475 1475 1477 1479 1481 1484 1487 1489 1491 1492 1493 1494 1495 1495 1496 1496 1496 1496 1497 1497 1497 1497 1498 1498 1498
1489 1493 1492 1479 1481 1481 1481 1480 1480 1479 1477 1477 1476 1475 1473 1472 1471 1469 1469 1469 1470 1472 1474 1476 1479 1482 1484 1486 1487 1489 1490 1490 1491 1492 1492 1493 1493 1494 1494 1495 1496 1496 1496 1497
1488 1484 1478 1477 1479 1480 1480 1477 1477 1477 1475 1474 1473 1471 1467 1466 1465 1464 1464 1464 1465 1467 1469 1471 1474 1476 1479 1480 1482 1484 1485 1486 1487 1488 1489 1489 1490 1491 1492 1493 1494 1494 1495 1495
1487 1485 1480 1475 1477 1479 1480 1475 1475 1475 1474 1473 1472 1468 1465 1464 1462 1460 1460 1460 1461 1462 1464 1467 1469 1471 1473 1475 1477 1479 1480 1482 1483 1484 1485 1486 1488 1489 1490 1491 1492 1493 1493 1494
1485 1482 1475 1475 1478 1479 1478 1473 1475 1474 1473 1472 1470 1468 1467 1463 1461 1459 1458 1458 1458 1459 1461 1463 1465 1467 1468 1470 1472 1475 1477 1478 1480 1481 1482 1483 1485 1486 1487 1488 1489 1490 1491 1492
1481 1482 1479 1477 1478 1477 1475 1475 1474 1473 1472 1470 1468 1466 1464 1462 1461 1459 1458 1458 1458 1458 1459 1460 1462 1463 1465 1467 1469 1471 1472 1474 1476 1477 1479 1480 1481 1483 1484 1486 1487 1488 1488 1489
1479 1478 1478 1478 1477 1477 1476 1475 1473 1472 1470 1469 1467 1465 1464 1462 1461 1460 1459 1458 1458 1458 1458 1459 1460 1461 1462 1464 1465 1467 1469 1470 1472 1473 1475 1476 1478 1479 1481 1482 1484 1484 1485 1486
1481 1477 1477 1477 1476 1476 1474 1473 1471 1470 1469 1467 1466 1464 1463 1462 1460 1459 1459 1458 1458 1457 1458 1458 1458 1459 1460 1461 1462 1464 1465 1467 1468 1470 1471 1473 1474 1476 1477 1478 1480 1481 1482 1482
1480 1478 1477 1475 1475 1474 1472 1471 1469 1467 1466 1465 1464 1463 1462 1460 1459 1459 1458 1457 1457 1456 1456 1456 1456 1457 1457 1458 1459 1460 1461 1463 1464 1465 1467 1468 1470 1472 1473 1475 1476 1477 1478 1479
1480 1480 1479 1476 1474 1472 1470 1468 1466 1465 1464 1463 1462 1461 1460 1459 1458 1457 1456 1456 1455 1455 1454 1454 1454 1454 1455 1455 1456 1457 1458 1459 1460 1461 1463 1464 1466 1468 1469 1471 1472 1473 1473 1474
1482 1479 1477 1474 1471 1469 1467 1465 1464 1462 1461 1460 1459 1458 1457 1456 1455 1455 1454 1454 1453 1452 1452 1451 1451 1451 1451 1451 1452 1453 1453 1454 1456 1457 1458 1459 1461 1463 1464 1466 1467 1467 1468 1469
1478 1476 1472 1470 1469 1466 1464 1462 1461 1459 1458 1457 1456 1455 1454 1453 1453 1452 1451 1450 1450 1449 1448 1448 1447 1447 1447 1447 1448 1448 1449 1450 1451 1452 1453 1454 1456 1457 1459 1460 1461 1461 1463 1464
1474 1473 1470 1467 1465 1463 1461 1459 1458 1456 1455 1454 1453 1452 1451 1450 1449 1449 1448 1447 1446 1445 1445 1444 1444 1444 1443 1443 1443 1444 1444 1445 1446 1447 1448 1449 1450 1452 1453 1454 1455 1456 1457 1458
1470 1468 1466 1463 1461 1459 1457 1456 1454 1453 1452 1451 1450 1449 1448 1447 1446 1445 1444 1443 1443 1442 1441 1440 1440 1440 1439 1439 1439 1439 1439 1440 1440 1441 1442 1443 1444 1445 1446 1447 1448 1449 1450 1451
1467 1464 1462 1460 1458 1455 1454 1452 1451 1449 1448 1447 1446 1445 1445 1444 1443 1442 1441 1440 1439 1438 1437 1436 1436 1435 1435 1434 1434 1434 1434 1434 1435 1435 1436 1437 1438 1438 1440 1441 1441 1442 1443 1444
1464 1462 1460 1457 1455 1452 1450 1449 1447 1446 1445 1444 1443 1442 1441 1440 1439 1438 1437 1436 1435 1434 1433 1432 1432 1431 1430 1430 1429 1429 1429 1429 1429 1429 1430 1431 1431 1432 1433 1433 1434 1435 1435 1436
1461 1459 1456 1454 1451 1449 1447 1446 1445 1443 1442 1441 1441 1440 1439 1438 1437 1436 1434 1433 1432 1431 1430 1429 1428 1427 1426 1425 1425 1424 1424 1424 1424 1424 1424 1424 1425 1425 1425 1426 1426 1427 1427 1428
1458 1456 1454 1452 1449 1447 1445 1444 1442 1441 1440 1439 1438 1437 1436 1435 1434 1433 1432 1431 1429 1428 1427 1425 1424 1423 1422 1421 1420 1420 1419 1419 1418 1418 1418 1418 1418 1418 1418 1418 1419 1419 1419 1419
1456 1454 1452 1450 1448 1446 1444 1443 1441 1440 1439 1438 1437 1436 1435 1433 1432 1431 1429 1428 1427 1425 1424 1422 1421 1419 1418 1417 1416 1415 1414 1414 1413 1413 1413 1412 1412 1412 1412 1411 1411 1411 1411 1411
1454 1452 1450 1448 1446 1445 1443 1441 1440 1439 1437 1436 1435 1434 1433 1431 1430 1429 1427 1426 1424 1423 1421 1419 1418 1416 1414 1413 1412 1411 1410 1409 1408 1408 1407 1407 1406 1405 1405 1405 1404 1404 1404 1403
1451 1449 1447 1446 1444 1442 1441 1439 1438 1436 1435 1434 1433 1431 1430 1429 1428 1426 1425 1423 1421 1420 1418 1416 1414 1413 1411 1409 1408 1407 1406 1405 1404 1403 1402 1401 1400 1400 1399 1398 1398 1397 1397 1396
1447 1446 1444 1442 1441 1439 1438 1437 1435 1434 1432 1431 1430 1428 1427 1426 1425 1423 1422 1420 1418 1417 1415 1413 1411 1409 1407 1406 1404 1403 1401 1400 1399 1398 1397 1396 1395 1394 1393 1393 1392 1391 1390 1390
1443 1441 1440 1438 1437 1436 1434 1433 1432 1430 1429 1427 1426 1425 1424 1422 1421 1420 1418 1417 1415 1413 1412 1410 1408 1406 1404 1402 1401 1399 1397 1396 1395 1393 1392 1391 1390 1389 1388 1387 1386 1385 1385 1384
1437 1436 1435 1434 1432 1431 1430 1429 1427 1426 1425 1423 1422 1421 1420 1419 1417 1416 1415 1413 1412 1410 1408 1406 1405 1403 1401 1399 1397 1395 1394 1392 1391 1389 1388 1386 1385 1384 1383 1382 1381 1380 1379 1379
1432 1430 1429 1428 1427 1426 1425 1424 1423 1422 1420 1419 1418 1417 1416 1415 1413 1412 1411 1410 1408 1406 1405 1403 1401 1399 1397 1396 1394 1392 1390 1388 1386 1385 1383 1382 1381 1379 1378 1377 1376 1375 1374 1374